FW0501 Weather Reports


time (UTC)temp
F
wind
direction
speed
knots
gust
knots
rain 1hr
in
rain 24hr
in
rain mn
in
humidity
%
barometer
mb
20200531063438 76 231 2.6 3.5 0.00 0.00 0.00 35 1015.6
20200531062938 76 249 0.9 3.5 0.00 0.00 0.00 35 1015.6
20200531062437 76 202 0.9 3.5 0.00 0.00 0.00 35 1015.7
20200531061939 76 237 1.7 3.5 0.00 0.00 0.00 35 1015.6
20200531061437 76 232 0.9 3.5 0.00 0.00 0.00 35 1015.6
20200531060937 77 240 0.9 2.6 0.00 0.00 0.00 35 1015.7
20200531060437 77 242 1.7 2.6 0.00 0.00 0.00 34 1015.8
20200531055937 77 253 1.7 2.6 0.00 0.00 0.00 34 1015.8
20200531055438 77 246 0.9 2.6 0.00 0.00 0.00 34 1015.7
20200531054937 77 236 0.0 1.7 0.00 0.00 0.00 35 1015.7
20200531054437 76 248 0.9 1.7 0.00 0.00 0.00 35 1015.7
20200531053935 76 238 0.9 1.7 0.00 0.00 0.00 35 1015.7
20200531053436 77 221 0.0 1.7 0.00 0.00 0.00 35 1015.8
20200531052935 78 217 0.0 1.7 0.00 0.00 0.00 35 1015.8
20200531052436 78 63 0.0 1.7 0.00 0.00 0.00 35 1015.7
20200531052207 78 344 0.0 0.9 0.00 0.00 0.00 34 1015.8
20200531051435 79 39 0.0 0.9 0.00 0.00 0.00 34 1015.8
20200531050935 79 39 0.0 1.7 0.00 0.00 0.00 33 1015.9
20200531050438 80 40 0.9 2.6 0.00 0.00 0.00 33 1015.8
20200531045935 80 310 0.9 2.6 0.00 0.00 0.00 32 1015.8
20200531045434 81 290 0.9 1.7 0.00 0.00 0.00 32 1015.8
20200531044933 82 319 0.9 4.3 0.00 0.00 0.00 31 1015.7
20200531044435 82 15 0.9 4.3 0.00 0.00 0.00 31 1015.5
20200531043931 82 279 0.9 3.5 0.00 0.00 0.00 31 1015.5
20200531043432 82 309 0.9 3.5 0.00 0.00 0.00 31 1015.6
20200531043202 82 24 0.9 3.5 0.00 0.00 0.00 31 1015.6
20200531042932 82 24 0.9 3.5 0.00 0.00 0.00 31 1015.6
20200531042437 83 17 0.9 4.3 0.00 0.00 0.00 30 1015.5
20200531041931 83 112 1.7 4.3 0.00 0.00 0.00 30 1015.4
20200531041435 83 304 2.6 6.1 0.00 0.00 0.00 30 1015.4
20200531040930 83 36 3.5 7.0 0.00 0.00 0.00 30 1015.3
20200531040709 83 68 1.7 7.0 0.00 0.00 0.00 29 1015.3
20200531040445 83 68 1.7 7.0 0.00 0.00 0.00 29 1015.3
20200531035928 84 41 1.7 6.1 0.00 0.00 0.00 29 1015.3
20200531035427 84 248 2.6 7.0 0.00 0.00 0.00 28 1015.3
20200531035200 85 18 2.6 7.0 0.00 0.00 0.00 26 1015.2
20200531034934 85 18 2.6 7.0 0.00 0.00 0.00 26 1015.2
20200531034436 85 13 1.7 4.3 0.00 0.00 0.00 26 1015.0
20200531033929 85 231 2.6 12.2 0.00 0.00 0.00 26 1014.9
20200531033422 86 323 3.5 15.6 0.00 0.00 0.00 26 1014.9
20200531032927 86 245 7.0 18.2 0.00 0.00 0.00 26 1014.8
20200531032427 86 267 7.8 18.2 0.00 0.00 0.00 25 1014.9
20200531031923 87 263 7.8 16.5 0.00 0.00 0.00 25 1014.8
20200531031653 87 268 8.7 16.5 0.00 0.00 0.00 24 1014.8
20200531031421 87 268 8.7 16.5 0.00 0.00 0.00 24 1014.8
20200531030925 87 314 7.0 14.8 0.00 0.00 0.00 24 1014.9
20200531030920 87 316 7.8 16.5 0.00 0.00 0.00 24 1014.8
20200531030652 87 314 7.0 14.8 0.00 0.00 0.00 24 1014.9
20200531025918 87 308 7.0 13.9 0.00 0.00 0.00 24 1015.0
20200531025418 87 230 7.8 14.8 0.00 0.00 0.00 23 1015.0
20200531024918 87 235 7.8 15.6 0.00 0.00 0.00 23 1014.9
20200531024417 88 260 8.7 19.1 0.00 0.00 0.00 23 1014.7
20200531023916 88 248 9.6 21.7 0.00 0.00 0.00 23 1014.4
20200531023418 88 259 10.4 21.7 0.00 0.00 0.00 23 1014.4
20200531022918 88 283 9.6 20.0 0.00 0.00 0.00 22 1014.3
20200531022419 89 302 7.8 18.2 0.00 0.00 0.00 22 1014.2
20200531021917 89 256 7.8 18.2 0.00 0.00 0.00 21 1014.2
20200531021418 89 223 6.1 16.5 0.00 0.00 0.00 20 1014.0
20200531020919 89 253 4.3 13.0 0.00 0.00 0.00 20 1013.9
20200531020418 89 272 3.5 13.0 0.00 0.00 0.00 21 1013.8
20200531015917 88 254 1.7 8.7 0.00 0.00 0.00 22 1013.7
20200531015418 88 248 1.7 5.2 0.00 0.00 0.00 22 1013.6
20200531014917 88 275 1.7 6.1 0.00 0.00 0.00 22 1013.6
20200531014417 88 263 1.7 7.0 0.00 0.00 0.00 23 1013.6
20200531013917 88 271 1.7 7.0 0.00 0.00 0.00 23 1013.5
20200531013417 88 330 1.7 5.2 0.00 0.00 0.00 23 1013.5
20200531012917 89 299 0.9 4.3 0.00 0.00 0.00 23 1013.5
20200531012416 89 306 1.7 7.0 0.00 0.00 0.00 22 1013.3
20200531011917 89 282 1.7 7.0 0.00 0.00 0.00 22 1013.0
20200531011418 89 259 1.7 6.1 0.00 0.00 0.00 22 1013.0
20200531010917 89 247 1.7 7.0 0.00 0.00 0.00 23 1012.9
20200531010417 89 264 3.5 9.6 0.00 0.00 0.00 22 1013.0
20200531005916 89 255 4.3 16.5 0.00 0.00 0.00 22 1012.9
20200531005415 90 290 5.2 16.5 0.00 0.00 0.00 22 1013.0
20200531004913 90 281 4.3 13.0 0.00 0.00 0.00 22 1013.1
20200531004413 91 248 4.3 13.9 0.00 0.00 0.00 21 1013.3
20200531003913 91 281 5.2 13.9 0.00 0.00 0.00 20 1013.1
20200531003413 91 252 6.1 13.9 0.00 0.00 0.00 19 1013.1
20200531002912 91 319 7.0 15.6 0.00 0.00 0.00 19 1013.3
20200531002413 92 258 7.8 17.4 0.00 0.00 0.00 19 1013.4
20200531001912 92 252 6.1 17.4 0.00 0.00 0.00 19 1013.4
20200531001411 92 260 7.8 20.0 0.00 0.00 0.00 19 1013.4
20200531000910 92 271 7.8 20.0 0.00 0.00 0.00 19 1013.4
20200531000409 93 257 6.1 15.6 0.00 0.00 0.00 19 1013.3
20200530235908 94 264 7.0 15.6 0.00 0.00 0.00 19 1013.3
20200530235409 94 250 6.1 13.9 0.00 0.00 0.00 19 1013.4
20200530234909 96 259 3.5 10.4 0.00 0.00 0.00 19 1013.5
20200530234409 96 247 2.6 7.8 0.00 0.00 0.00 16 1013.5
20200530233908 97 240 1.7 6.1 0.00 0.00 0.00 16 1013.6
20200530233408 97 253 1.7 6.1 0.00 0.00 0.00 16 1013.6
20200530232912 97 251 3.5 8.7 0.00 0.00 0.00 16 1013.7
20200530232408 97 196 4.3 8.7 0.00 0.00 0.00 15 1013.8
20200530231908 97 206 4.3 8.7 0.00 0.00 0.00 15 1013.8
20200530231406 97 265 4.3 8.7 0.00 0.00 0.00 15 1013.9
20200530230906 98 200 4.3 7.8 0.00 0.00 0.00 15 1013.9
20200530230412 98 219 4.3 8.7 0.00 0.00 0.00 15 1014.0
20200530225907 98 211 3.5 8.7 0.00 0.00 0.00 15 1013.9
20200530225407 97 239 2.6 7.8 0.00 0.00 0.00 15 1014.0
20200530224905 97 252 2.6 6.1 0.00 0.02 0.00 15 1014.0
20200530224406 97 232 2.6 7.8 0.00 0.03 0.00 15 1014.0
20200530223906 97 200 3.5 7.8 0.00 0.03 0.00 14 1013.9
20200530223407 97 194 4.3 9.6 0.00 0.03 0.00 14 1014.0
20200530223138 98 231 5.2 10.4 0.00 0.03 0.00 15 1014.0
20200530222906 98 231 5.2 10.4 0.00 0.03 0.00 15 1014.0
20200530222408 97 205 4.3 10.4 0.00 0.03 0.00 15 1014.0
20200530221906 98 231 3.5 9.6 0.00 0.03 0.00 14 1014.0
20200530221408 98 165 3.5 7.8 0.00 0.03 0.00 14 1014.0
20200530220909 98 197 3.5 7.0 0.00 0.03 0.00 14 1014.2
20200530220638 98 204 2.6 6.1 0.00 0.03 0.00 15 1014.3
20200530215907 98 189 3.5 9.6 0.00 0.03 0.00 14 1014.3
20200530215407 98 156 3.5 9.6 0.00 0.03 0.00 14 1014.4
20200530214906 98 169 2.6 8.7 0.00 0.03 0.00 14 1014.4
20200530214406 99 183 3.5 8.7 0.00 0.03 0.00 14 1014.5
20200530213906 99 108 3.5 7.8 0.00 0.03 0.00 14 1014.6
20200530213406 99 123 3.5 7.8 0.00 0.03 0.00 14 1014.7
20200530212907 99 104 4.3 8.7 0.00 0.03 0.00 14 1014.7
20200530212407 100 122 5.2 12.2 0.00 0.03 0.00 14 1014.8
20200530211904 101 178 5.2 14.8 0.00 0.03 0.00 13 1014.8
20200530211404 101 155 3.5 14.8 0.00 0.03 0.00 13 1014.9
20200530210901 101 169 2.6 7.8 0.00 0.03 0.00 13 1014.9
20200530210402 101 114 3.5 7.8 0.00 0.03 0.00 14 1015.2
20200530205902 101 103 4.3 10.4 0.00 0.03 0.00 13 1015.3
20200530205401 101 131 6.1 15.6 0.00 0.03 0.00 13 1015.4
20200530204900 101 241 6.1 15.6 0.00 0.03 0.00 13 1015.4
20200530204400 101 150 5.2 14.8 0.00 0.03 0.00 14 1015.4
20200530203910 101 147 4.3 13.0 0.00 0.03 0.00 14 1015.4
20200530203359 101 135 5.2 13.0 0.00 0.03 0.00 14 1015.6
20200530202902 100 228 5.2 12.2 0.00 0.03 0.00 13 1015.5
20200530202358 101 193 4.3 12.2 0.00 0.03 0.00 14 1015.6
20200530201858 100 150 6.1 11.3 0.00 0.03 0.00 14 1015.7
20200530201357 99 143 7.0 14.8 0.00 0.03 0.00 14 1015.7
20200530200858 100 76 7.8 19.1 0.00 0.03 0.00 14 1015.9
20200530200358 99 115 8.7 19.1 0.00 0.03 0.00 14 1015.8
20200530195858 99 113 7.8 16.5 0.00 0.03 0.00 14 1016.0
20200530195358 99 114 6.1 13.9 0.00 0.03 0.00 13 1016.0
20200530194858 99 219 7.0 13.0 0.00 0.03 0.00 13 1015.9
20200530194357 99 153 7.8 15.6 0.00 0.03 0.00 14 1016.0
20200530193857 99 110 6.1 15.6 0.00 0.03 0.00 13 1016.2
20200530193358 100 103 3.5 12.2 0.00 0.03 0.00 13 1016.4
20200530192858 100 153 4.3 10.4 0.00 0.03 0.00 13 1016.4
20200530192358 100 180 5.2 13.0 0.00 0.03 0.00 13 1016.5
20200530191858 99 143 5.2 13.0 0.00 0.03 0.00 13 1016.5
20200530191358 99 139 5.2 11.3 0.00 0.03 0.00 13 1016.6
20200530190857 98 136 5.2 15.6 0.00 0.03 0.00 13 1016.5
20200530190358 99 111 7.0 15.6 0.00 0.03 0.00 13 1016.8
20200530185902 99 199 7.8 14.8 0.00 0.03 0.00 14 1016.8
20200530185357 98 105 5.2 14.8 0.00 0.03 0.00 14 1016.8
20200530184858 99 113 2.6 12.2 0.00 0.03 0.00 14 1016.9
20200530184357 98 247 3.5 11.3 0.00 0.03 0.00 15 1016.8
20200530183855 99 122 4.3 9.6 0.00 0.03 0.00 14 1016.9
20200530183355 98 158 5.2 10.4 0.00 0.03 0.00 13 1017.1
20200530182902 97 122 6.1 11.3 0.00 0.03 0.00 15 1017.4
20200530182356 97 78 5.2 11.3 0.00 0.03 0.00 16 1017.4
20200530181855 98 91 5.2 13.9 0.00 0.03 0.00 15 1017.3
20200530181356 97 240 6.1 13.9 0.00 0.03 0.00 16 1017.4
20200530180855 97 195 4.3 11.3 0.00 0.03 0.00 16 1017.7
20200530180356 97 208 3.5 8.7 0.00 0.03 0.00 16 1017.7
20200530175855 97 146 4.3 9.6 0.00 0.03 0.00 17 1017.6
20200530175353 96 149 4.3 10.4 0.00 0.03 0.00 17 1017.7
20200530174852 96 195 4.3 10.4 0.00 0.03 0.00 17 1017.7
20200530174352 96 188 4.3 10.4 0.00 0.03 0.00 18 1017.7
20200530173852 95 139 5.2 10.4 0.00 0.03 0.00 18 1017.7
20200530173351 94 102 5.2 9.6 0.00 0.03 0.00 19 1017.8
20200530172851 95 115 4.3 9.6 0.00 0.03 0.00 18 1017.9
20200530172351 95 173 5.2 12.2 0.00 0.03 0.00 18 1017.9
20200530171852 94 241 4.3 12.2 0.00 0.03 0.00 19 1017.9
20200530171351 95 88 4.3 9.6 0.00 0.03 0.00 19 1018.1
20200530170851 94 149 5.2 11.3 0.00 0.03 0.00 21 1017.9
20200530170352 94 127 4.3 11.3 0.00 0.03 0.00 20 1018.1
20200530165851 94 166 3.5 7.0 0.00 0.03 0.00 20 1018.1
20200530165352 94 169 3.5 7.0 0.00 0.03 0.00 20 1018.1
20200530164851 94 120 3.5 10.4 0.00 0.03 0.00 21 1018.1
20200530164351 93 141 3.5 10.4 0.00 0.03 0.00 21 1018.1
20200530163851 93 125 4.3 8.7 0.00 0.03 0.00 22 1018.1
20200530163351 92 161 3.5 8.7 0.00 0.03 0.00 22 1018.2
20200530162851 92 214 2.6 5.2 0.00 0.03 0.00 23 1018.1
20200530162350 91 139 3.5 8.7 0.00 0.03 0.00 24 1018.1
20200530161849 91 125 2.6 8.7 0.00 0.03 0.00 24 1018.2
20200530161349 90 212 2.6 7.0 0.00 0.03 0.00 27 1018.3
20200530160849 89 149 2.6 6.1 0.00 0.03 0.00 28 1018.3
20200530160349 87 150 2.6 6.1 0.00 0.03 0.00 29 1018.4
20200530155849 86 155 2.6 7.0 0.00 0.03 0.00 33 1018.4
20200530155350 86 160 3.5 7.0 0.00 0.03 0.00 34 1018.5
20200530154849 85 102 3.5 6.1 0.00 0.03 0.00 35 1018.6
20200530154349 84 146 3.5 5.2 0.00 0.03 0.00 36 1018.5
20200530153849 83 111 3.5 6.1 0.00 0.03 0.00 38 1018.6
20200530153349 83 112 3.5 6.1 0.00 0.03 0.00 40 1018.5
20200530152847 82 114 2.6 6.1 0.00 0.03 0.00 41 1018.6
20200530152347 82 93 2.6 5.2 0.00 0.03 0.00 42 1018.6
20200530151847 81 115 1.7 5.2 0.00 0.03 0.00 42 1018.6
20200530151347 80 121 1.7 5.2 0.00 0.03 0.00 44 1018.6
20200530150847 80 100 1.7 4.3 0.00 0.03 0.00 44 1018.6
20200530150347 79 151 1.7 3.5 0.00 0.03 0.00 46 1018.6
20200530145847 78 108 1.7 3.5 0.00 0.03 0.00 46 1018.7
20200530145346 78 108 0.9 3.5 0.00 0.03 0.00 46 1018.7
20200530144847 77 176 0.9 3.5 0.00 0.03 0.00 47 1018.7
20200530144347 76 132 0.9 3.5 0.00 0.03 0.00 48 1018.8
20200530143845 75 141 0.9 2.6 0.00 0.03 0.00 50 1018.6
20200530143345 75 117 0.9 3.5 0.00 0.03 0.00 51 1018.6
20200530142843 73 108 0.9 3.5 0.00 0.03 0.00 51 1018.5
20200530142343 73 93 1.7 2.6 0.00 0.03 0.00 53 1018.4
20200530141844 73 120 1.7 2.6 0.00 0.03 0.00 52 1018.4
20200530141343 73 94 0.9 2.6 0.00 0.03 0.00 51 1018.3
20200530140844 73 90 0.0 2.6 0.00 0.03 0.00 49 1018.4
20200530140342 73 65 0.0 0.9 0.00 0.03 0.00 49 1018.5
20200530135841 73 56 0.0 0.9 0.00 0.03 0.00 51 1018.3
20200530135339 72 55 0.0 0.9 0.00 0.03 0.00 52 1018.2
20200530134839 71 172 0.0 0.0 0.00 0.03 0.00 53 1018.2
20200530134338 71 173 0.0 0.0 0.00 0.03 0.00 54 1018.4
20200530133837 70 172 0.0 0.0 0.00 0.03 0.00 55 1018.3
20200530133334 69 172 0.0 1.7 0.00 0.03 0.00 58 1018.3
20200530132835 68 175 0.9 1.7 0.00 0.03 0.00 59 1018.3
20200530132333 67 161 0.9 1.7 0.00 0.03 0.00 61 1018.3
20200530131833 66 194 0.9 1.7 0.00 0.03 0.00 62 1018.2
20200530131332 66 207 0.9 3.5 0.00 0.03 0.00 63 1018.2
20200530130831 65 156 0.9 3.5 0.00 0.03 0.00 65 1018.1
20200530130330 65 108 0.9 2.6 0.00 0.03 0.00 65 1018.1
20200530125831 65 93 0.0 1.7 0.00 0.03 0.00 66 1017.9
20200530125331 64 73 0.0 1.7 0.00 0.03 0.00 66 1017.8
20200530124831 64 81 0.0 1.7 0.00 0.03 0.00 67 1017.7
20200530124331 64 68 0.0 1.7 0.00 0.03 0.00 66 1017.8
20200530123829 65 93 0.0 0.9 0.00 0.03 0.00 65 1017.8
20200530123328 64 94 0.0 0.9 0.00 0.03 0.00 65 1017.9
20200530122829 64 104 0.0 1.7 0.00 0.03 0.00 65 1017.7
20200530122326 64 150 0.9 2.6 0.00 0.03 0.00 64 1017.6
20200530121825 65 194 0.9 5.2 0.00 0.03 0.00 62 1017.5
20200530121325 66 121 1.7 7.0 0.00 0.03 0.00 57 1017.6
20200530120824 65 111 1.7 7.0 0.00 0.03 0.00 58 1017.5
20200530120325 65 214 0.9 3.5 0.00 0.03 0.00 59 1017.4
20200530115824 65 198 0.9 2.6 0.00 0.03 0.00 61 1017.4
20200530115325 66 129 0.9 2.6 0.00 0.03 0.00 54 1017.4
20200530114824 68 106 1.7 2.6 0.00 0.03 0.00 51 1017.3
20200530114325 67 244 1.7 2.6 0.00 0.03 0.00 53 1017.2
20200530113824 66 236 0.9 1.7 0.00 0.03 0.00 56 1017.2
20200530113325 66 223 0.9 1.7 0.00 0.03 0.00 57 1017.2
20200530112825 67 186 0.0 0.9 0.00 0.03 0.00 56 1017.3
20200530112324 68 150 0.0 0.9 0.00 0.03 0.00 54 1017.3
20200530111825 69 123 0.0 0.9 0.00 0.03 0.00 53 1017.3
20200530111324 70 160 0.0 0.0 0.00 0.03 0.00 54 1017.3
20200530110824 70 160 0.0 0.0 0.00 0.03 0.00 53 1017.3
20200530110324 70 160 0.0 0.0 0.00 0.03 0.00 53 1017.4
20200530105824 69 160 0.0 0.0 0.00 0.03 0.00 52 1017.4
20200530104824 69 233 0.9 1.7 0.00 0.03 0.00 51 1017.4
20200530104324 69 230 0.9 2.6 0.00 0.03 0.00 52 1017.5
20200530103824 68 228 1.7 3.5 0.00 0.03 0.00 53 1017.4
20200530103324 67 209 1.7 3.5 0.00 0.03 0.00 54 1017.5
20200530102825 67 241 0.9 2.6 0.00 0.03 0.00 55 1017.5
20200530102325 67 214 0.0 1.7 0.00 0.03 0.00 57 1017.6
20200530101824 67 181 0.0 0.0 0.00 0.03 0.00 56 1017.6
20200530101322 67 181 0.0 0.0 0.00 0.03 0.00 55 1017.6
20200530100822 67 181 0.0 0.0 0.00 0.03 0.00 55 1017.7
20200530100322 68 239 0.0 0.0 0.00 0.03 0.00 59 1017.7
20200530095825 68 240 0.0 0.0 0.00 0.03 0.00 59 1017.8
20200530095322 68 239 0.0 0.0 0.00 0.03 0.00 59 1017.7
20200530094822 68 239 0.0 0.0 0.00 0.03 0.00 58 1017.7
20200530094322 69 239 0.0 1.7 0.00 0.03 0.00 55 1017.7
20200530093823 69 239 0.0 1.7 0.00 0.03 0.00 56 1017.6
20200530093323 70 237 0.0 1.7 0.00 0.03 0.00 55 1017.6
20200530092822 70 250 0.9 1.7 0.00 0.03 0.00 53 1017.6
20200530092322 70 229 0.0 1.7 0.00 0.03 0.00 53 1017.5
20200530091823 71 248 0.0 0.9 0.00 0.03 0.00 53 1017.5
20200530091322 71 251 0.0 0.9 0.00 0.03 0.00 55 1017.5
20200530090822 71 242 0.0 0.0 0.00 0.03 0.00 55 1017.5
20200530090322 71 241 0.0 0.0 0.00 0.03 0.00 55 1017.6
20200530085822 71 242 0.0 0.9 0.00 0.03 0.00 54 1017.6
20200530085322 71 242 0.0 0.9 0.00 0.03 0.00 55 1017.7
20200530084822 71 238 0.0 0.9 0.00 0.03 0.00 55 1017.7
20200530084323 71 240 0.0 0.9 0.00 0.03 0.00 56 1017.8
20200530083822 70 240 0.0 0.9 0.00 0.03 0.00 56 1017.8
20200530083322 70 252 0.0 0.0 0.00 0.03 0.00 57 1017.8
20200530082824 70 324 0.0 0.0 0.00 0.03 0.00 57 1017.8
20200530082323 70 324 0.0 0.0 0.00 0.03 0.00 56 1017.9
20200530081822 70 325 0.0 0.9 0.00 0.03 0.00 56 1018.2
20200530081322 70 324 0.0 0.9 0.00 0.03 0.00 56 1018.1
20200530080822 70 86 0.0 0.9 0.00 0.03 0.00 55 1018.3
20200530080323 71 98 0.0 0.9 0.00 0.03 0.00 52 1018.2
20200530075822 73 128 0.0 0.9 0.00 0.03 0.00 49 1018.3
20200530075322 74 129 0.0 0.9 0.00 0.03 0.00 48 1018.3
20200530074822 74 167 0.0 0.0 0.00 0.03 0.00 47 1018.4
20200530074320 74 210 0.0 0.9 0.00 0.03 0.00 47 1018.5
20200530073820 75 210 0.9 2.6 0.00 0.03 0.00 47 1018.6
20200530073320 75 211 1.7 3.5 0.00 0.03 0.00 47 1018.6
20200530072820 75 195 2.6 3.5 0.00 0.03 0.00 47 1018.6
20200530072320 74 220 1.7 3.5 0.00 0.03 0.00 47 1018.7
20200530071820 74 202 0.9 1.7 0.00 0.03 0.00 47 1018.7
20200530071320 74 200 0.0 1.7 0.00 0.03 0.00 47 1018.8
20200530070820 75 211 0.0 0.0 0.00 0.03 0.00 48 1018.9
20200530070320 75 243 0.0 0.9 0.00 0.03 0.00 47 1018.9
20200530065819 76 248 0.9 2.6 0.00 0.03 0.03 46 1019.1
20200530065319 76 253 1.7 2.6 0.00 0.03 0.03 47 1018.9
20200530064819 76 238 1.7 4.3 0.00 0.03 0.03 48 1018.9
20200530064319 76 240 0.9 4.3 0.00 0.03 0.03 48 1018.9
20200530063821 76 200 0.9 4.3 0.00 0.03 0.03 49 1018.9